{"data":{"norad_id":48239,"intl_designator":"2021-031AF","name":"ONEWEB-0191","alt_names":[],"object_type":"PAYLOAD","status":"ACTIVE","operator":null,"country":"UK","launch_date":"2021-04-25","launch_site_code":"VOSTO","launch_vehicle":null,"mission":null,"orbit_class":"UNKNOWN","rcs_meters":null,"size_class":null,"mass_kg":null,"dimensions":null,"purposes":["comms"],"wikipedia_slug":null,"has_3d_model":false,"image_url":null,"decayed_at":null,"tle_current":{"epoch":"2026-09-18T07:49:05.682144Z","epoch_age_seconds":206146,"freshness":"STALE","line1":"1 48239U 21031AF  26261.32576021  .00000250  00000+0  63863-3 0  9991","line2":"2 48239  87.8898 271.1272 0001962  93.4765 266.6589 13.14504182260403","mean_motion":13.14504182,"eccentricity":0.0001962,"inclination_deg":87.8898,"raan_deg":271.1272,"arg_perigee_deg":93.4765,"mean_anomaly_deg":266.6589,"bstar":0.00063863,"rev_number":26040,"period_min":109.54700789229,"perigee_km":1204.2970735795,"apogee_km":1207.2730045876,"semimajor_km":7583.9220390836,"source":"CELESTRAK","updated_at":"2026-09-20T09:00:44.612984Z"}}}